Simultaneous Nadir Overpasses (SNOs) Predictions

Prediction of SNOs between NPP and TERRA Satellite Orbit:

Table of predicted SNOs for the next 14.0 days since TLE Epoch: 9/7/2024
Index Date (NPP) Time (NPP) Lat,Lon (NPP) SZA (NPP ) Date (TERRA) Time (TERRA) Lat,Lon (TERRA) SZA (TERRA ) Distance(km) Time Diff (sec)
1 09/08/2024 08:53:05 72.66, 38.65 67.28 09/08/2024 08:54:08 72.68, 38.72 67.28 3.03 63
2 09/08/2024 09:43:47 -72.55,-153.81 112.83 09/08/2024 09:43:32 -72.56,-153.84 112.82 1.22 15
3 09/10/2024 20:05:36 73.10,-130.38 68.68 09/10/2024 20:06:45 72.99,-128.92 68.50 49.21 69
4 09/10/2024 20:56:10 -72.59, 38.02 111.86 09/10/2024 20:56:14 -72.61, 38.03 111.85 2.11 4
5 09/10/2024 21:46:50 72.30,-154.10 67.85 09/10/2024 21:45:38 72.35,-154.76 67.93 23.17 72
6 09/13/2024 08:08:32 -72.60,-130.09 110.92 09/13/2024 08:08:55 -72.62,-130.16 110.90 3.35 23
7 09/13/2024 08:59:16 72.52, 37.38 69.01 09/13/2024 08:58:16 72.52, 37.32 69.02 2.00 60
8 09/15/2024 19:20:55 -72.68, 61.66 109.90 09/15/2024 19:21:34 -72.65, 61.69 109.93 3.35 39
9 09/15/2024 20:11:38 72.55,-130.78 69.99 09/15/2024 20:10:55 72.54,-130.85 69.98 2.88 43
10 09/18/2024 06:33:16 -72.68,-106.43 108.95 09/18/2024 06:34:11 -72.69,-106.42 108.95 2.07 55
11 09/18/2024 07:24:00 72.60, 61.03 70.99 09/18/2024 07:23:32 72.57, 61.03 70.96 3.53 28
12 09/20/2024 17:45:37 -72.70, 85.44 107.98 09/20/2024 17:46:47 -72.70, 85.41 107.99 1.27 70
13 09/20/2024 18:36:21 72.63,-107.11 71.96 09/20/2024 18:36:07 72.63,-107.06 71.96 1.62 14



Historial Predications of SNOs between NPP and TERRA
